Year,Month,Day,Hour,Minute,Value (Times are PST for insolation in W/m^2)
2012,06,01,00,00,5.00
2012,06,01,00,01,5.00
2012,06,01,00,02,5.00
2012,06,01,00,03,5.00
2012,06,01,00,04,5.00
2012,06,01,00,05,5.00
2012,06,01,00,06,5.00
2012,06,01,00,07,5.00
2012,06,01,00,08,5.00
2012,06,01,00,09,5.00
2012,06,01,00,10,5.00
2012,06,01,00,11,5.00
2012,06,01,00,12,3.40
2012,06,01,00,13,0.00
2012,06,01,00,14,0.00
2012,06,01,00,15,0.00
2012,06,01,00,16,0.00
2012,06,01,00,17,0.00
2012,06,01,00,18,0.00
2012,06,01,00,19,0.00
2012,06,01,00,20,0.00
2012,06,01,00,21,0.00
2012,06,01,00,22,0.00
2012,06,01,00,23,0.00
2012,06,01,00,24,0.00
2012,06,01,00,25,0.00
2012,06,01,00,26,0.00
2012,06,01,00,27,0.00
2012,06,01,00,28,0.00
2012,06,01,00,29,0.00
2012,06,01,00,30,0.00
2012,06,01,00,31,0.00
2012,06,01,00,32,0.00
2012,06,01,00,33,0.00
2012,06,01,00,34,0.00
2012,06,01,00,35,0.00
2012,06,01,00,36,0.00
2012,06,01,00,37,0.00
2012,06,01,00,38,0.00
2012,06,01,00,39,0.00
2012,06,01,00,40,0.00
2012,06,01,00,41,0.00
2012,06,01,00,42,0.00
2012,06,01,00,43,0.00
2012,06,01,00,44,0.00
2012,06,01,00,45,0.00
2012,06,01,00,46,0.00
2012,06,01,00,47,0.00
2012,06,01,00,48,0.00
2012,06,01,00,49,0.00
2012,06,01,00,50,0.00
2012,06,01,00,51,0.00
2012,06,01,00,52,0.00
2012,06,01,00,53,0.00
2012,06,01,00,54,0.00
2012,06,01,00,55,0.00
2012,06,01,00,56,0.00
2012,06,01,00,57,0.00
2012,06,01,00,58,0.00
2012,06,01,00,59,0.00
2012,06,01,01,00,0.00
2012,06,01,01,01,0.00
2012,06,01,01,02,0.00
2012,06,01,01,03,0.00
2012,06,01,01,04,0.00
2012,06,01,01,05,0.00
2012,06,01,01,06,0.00
2012,06,01,01,07,0.00
2012,06,01,01,08,0.00
2012,06,01,01,09,0.00
2012,06,01,01,10,0.00
2012,06,01,01,11,0.00
2012,06,01,01,12,0.00
2012,06,01,01,13,0.00
2012,06,01,01,14,0.00
2012,06,01,01,15,0.00
2012,06,01,01,16,0.00
2012,06,01,01,17,0.00
2012,06,01,01,18,0.00
2012,06,01,01,19,0.00
2012,06,01,01,20,0.00
2012,06,01,01,21,0.00
2012,06,01,01,22,0.00
2012,06,01,01,23,0.00
2012,06,01,01,24,0.00
2012,06,01,01,25,0.00
2012,06,01,01,26,0.00
2012,06,01,01,27,0.00
2012,06,01,01,28,0.00
2012,06,01,01,29,0.00
2012,06,01,01,30,0.00
2012,06,01,01,31,0.00
2012,06,01,01,32,0.00
2012,06,01,01,33,0.00
2012,06,01,01,34,0.00
2012,06,01,01,35,0.00
2012,06,01,01,36,0.00
2012,06,01,01,37,0.00
2012,06,01,01,38,0.00
2012,06,01,01,39,0.00
2012,06,01,01,40,0.00
2012,06,01,01,41,0.00
2012,06,01,01,42,0.00
2012,06,01,01,43,0.00
2012,06,01,01,44,0.00
2012,06,01,01,45,0.00
2012,06,01,01,46,0.00
2012,06,01,01,47,0.00
2012,06,01,01,48,0.00
2012,06,01,01,49,0.00
2012,06,01,01,50,0.00
2012,06,01,01,51,0.00
2012,06,01,01,52,0.00
2012,06,01,01,53,0.00
2012,06,01,01,54,0.00
2012,06,01,01,55,0.00
2012,06,01,01,56,0.00
2012,06,01,01,57,0.00
2012,06,01,01,58,0.00
2012,06,01,01,59,0.00
2012,06,01,02,00,0.00
2012,06,01,02,01,0.00
2012,06,01,02,02,0.00
2012,06,01,02,03,0.00
2012,06,01,02,04,0.00
2012,06,01,02,05,0.00
2012,06,01,02,06,0.00
2012,06,01,02,07,0.00
2012,06,01,02,08,0.00
2012,06,01,02,09,0.00
2012,06,01,02,10,0.00
2012,06,01,02,11,0.00
2012,06,01,02,12,0.00
2012,06,01,02,13,0.00
2012,06,01,02,14,0.00
2012,06,01,02,15,0.00
2012,06,01,02,16,0.00
2012,06,01,02,17,0.00
2012,06,01,02,18,0.00
2012,06,01,02,19,0.00
2012,06,01,02,20,0.00
2012,06,01,02,21,0.00
2012,06,01,02,22,0.00
2012,06,01,02,23,0.00
2012,06,01,02,24,0.00
2012,06,01,02,25,0.00
2012,06,01,02,26,0.00
2012,06,01,02,27,0.00
2012,06,01,02,28,0.00
2012,06,01,02,29,0.00
2012,06,01,02,30,0.00
2012,06,01,02,31,0.00
2012,06,01,02,32,0.00
2012,06,01,02,33,0.00
2012,06,01,02,34,0.00
2012,06,01,02,35,0.00
2012,06,01,02,36,0.00
2012,06,01,02,37,0.00
2012,06,01,02,38,0.00
2012,06,01,02,39,0.00
2012,06,01,02,40,0.00
2012,06,01,02,41,0.00
2012,06,01,02,42,0.00
2012,06,01,02,43,0.00
2012,06,01,02,44,0.00
2012,06,01,02,45,0.00
2012,06,01,02,46,0.00
2012,06,01,02,47,0.00
2012,06,01,02,48,0.00
2012,06,01,02,49,0.00
2012,06,01,02,50,0.00
2012,06,01,02,51,0.00
2012,06,01,02,52,0.00
2012,06,01,02,53,0.00
2012,06,01,02,54,0.00
2012,06,01,02,55,0.00
2012,06,01,02,56,0.00
2012,06,01,02,57,0.00
2012,06,01,02,58,0.00
2012,06,01,02,59,0.00
2012,06,01,03,00,0.00
2012,06,01,03,01,0.00
2012,06,01,03,02,0.00
2012,06,01,03,03,0.00
2012,06,01,03,04,0.00
2012,06,01,03,05,0.00
2012,06,01,03,06,0.00
2012,06,01,03,07,0.00
2012,06,01,03,08,0.00
2012,06,01,03,09,0.00
2012,06,01,03,10,0.00
2012,06,01,03,11,0.00
2012,06,01,03,12,0.00
2012,06,01,03,13,0.00
2012,06,01,03,14,0.00
2012,06,01,03,15,0.00
2012,06,01,03,16,0.00
2012,06,01,03,17,0.00
2012,06,01,03,18,0.00
2012,06,01,03,19,0.00
2012,06,01,03,20,0.00
2012,06,01,03,21,0.00
2012,06,01,03,22,0.00
2012,06,01,03,23,0.00
2012,06,01,03,24,0.00
2012,06,01,03,25,0.00
2012,06,01,03,26,0.00
2012,06,01,03,27,0.00
2012,06,01,03,28,0.00
2012,06,01,03,29,0.00
2012,06,01,03,30,0.00
2012,06,01,03,31,0.00
2012,06,01,03,32,0.00
2012,06,01,03,33,0.00
2012,06,01,03,34,0.00
2012,06,01,03,35,0.00
2012,06,01,03,36,0.00
2012,06,01,03,37,0.00
2012,06,01,03,38,0.00
2012,06,01,03,39,0.00
2012,06,01,03,40,0.00
2012,06,01,03,41,0.00
2012,06,01,03,42,0.00
2012,06,01,03,43,0.00
2012,06,01,03,44,0.00
2012,06,01,03,45,0.00
2012,06,01,03,46,0.00
2012,06,01,03,47,0.00
2012,06,01,03,48,0.00
2012,06,01,03,49,0.00
2012,06,01,03,50,0.00
2012,06,01,03,51,0.00
2012,06,01,03,52,0.00
2012,06,01,03,53,0.00
2012,06,01,03,54,0.00
2012,06,01,03,55,0.00
2012,06,01,03,56,0.00
2012,06,01,03,57,0.00
2012,06,01,03,58,0.00
2012,06,01,03,59,0.00
2012,06,01,04,00,0.00
2012,06,01,04,01,0.00
2012,06,01,04,02,0.00
2012,06,01,04,03,0.00
2012,06,01,04,04,0.00
2012,06,01,04,05,0.00
2012,06,01,04,06,0.00
2012,06,01,04,07,0.00
2012,06,01,04,08,0.00
2012,06,01,04,09,0.00
2012,06,01,04,10,0.00
2012,06,01,04,11,0.00
2012,06,01,04,12,0.00
2012,06,01,04,13,0.00
2012,06,01,04,14,0.00
2012,06,01,04,15,0.00
2012,06,01,04,16,0.00
2012,06,01,04,17,0.00
2012,06,01,04,18,0.00
2012,06,01,04,19,0.00
2012,06,01,04,20,0.00
2012,06,01,04,21,0.00
2012,06,01,04,22,0.00
2012,06,01,04,23,0.90
2012,06,01,04,24,5.00
2012,06,01,04,25,5.00
2012,06,01,04,26,5.00
2012,06,01,04,27,5.00
2012,06,01,04,28,4.80
2012,06,01,04,29,1.00
2012,06,01,04,30,5.00
2012,06,01,04,31,5.00
2012,06,01,04,32,5.00
2012,06,01,04,33,5.00
2012,06,01,04,34,5.00
2012,06,01,04,35,5.00
2012,06,01,04,36,5.00
2012,06,01,04,37,5.00
2012,06,01,04,38,1.80
2012,06,01,04,39,0.00
2012,06,01,04,40,0.00
2012,06,01,04,41,0.00
2012,06,01,04,42,0.00
2012,06,01,04,43,0.00
2012,06,01,04,44,0.00
2012,06,01,04,45,0.00
2012,06,01,04,46,0.00
2012,06,01,04,47,0.00
2012,06,01,04,48,0.00
2012,06,01,04,49,0.00
2012,06,01,04,50,0.00
2012,06,01,04,51,0.00
2012,06,01,04,52,0.00
2012,06,01,04,53,0.00
2012,06,01,04,54,0.00
2012,06,01,04,55,0.00
2012,06,01,04,56,0.00
2012,06,01,04,57,4.20
2012,06,01,04,58,5.00
2012,06,01,04,59,5.00
2012,06,01,05,00,5.00
2012,06,01,05,01,5.00
2012,06,01,05,02,5.00
2012,06,01,05,03,5.00
2012,06,01,05,04,5.00
2012,06,01,05,05,5.00
2012,06,01,05,06,5.00
2012,06,01,05,07,5.00
2012,06,01,05,08,6.50
2012,06,01,05,09,7.00
2012,06,01,05,10,7.00
2012,06,01,05,11,7.00
2012,06,01,05,12,7.00
2012,06,01,05,13,7.00
2012,06,01,05,14,7.00
2012,06,01,05,15,7.00
2012,06,01,05,16,7.00
2012,06,01,05,17,7.00
2012,06,01,05,18,7.00
2012,06,01,05,19,7.00
2012,06,01,05,20,7.00
2012,06,01,05,21,8.80
2012,06,01,05,22,9.00
2012,06,01,05,23,9.00
2012,06,01,05,24,9.00
2012,06,01,05,25,9.00
2012,06,01,05,26,9.00
2012,06,01,05,27,9.00
2012,06,01,05,28,9.00
2012,06,01,05,29,9.00
2012,06,01,05,30,9.00
2012,06,01,05,31,9.00
2012,06,01,05,32,9.00
2012,06,01,05,33,9.00
2012,06,01,05,34,9.00
2012,06,01,05,35,9.90
2012,06,01,05,36,11.00
2012,06,01,05,37,11.00
2012,06,01,05,38,11.00
2012,06,01,05,39,11.10
2012,06,01,05,40,12.00
2012,06,01,05,41,12.00
2012,06,01,05,42,13.10
2012,06,01,05,43,14.00
2012,06,01,05,44,14.00
2012,06,01,05,45,14.00
2012,06,01,05,46,14.00
2012,06,01,05,47,14.00
2012,06,01,05,48,15.20
2012,06,01,05,49,16.00
2012,06,01,05,50,17.80
2012,06,01,05,51,19.00
2012,06,01,05,52,19.60
2012,06,01,05,53,21.90
2012,06,01,05,54,23.00
2012,06,01,05,55,24.50
2012,06,01,05,56,25.90
2012,06,01,05,57,26.30
2012,06,01,05,58,28.00
2012,06,01,05,59,28.00
2012,06,01,06,00,29.20
2012,06,01,06,01,30.00
2012,06,01,06,02,30.20
2012,06,01,06,03,32.00
2012,06,01,06,04,32.40
2012,06,01,06,05,33.00
2012,06,01,06,06,33.00
2012,06,01,06,07,33.00
2012,06,01,06,08,33.00
2012,06,01,06,09,33.00
2012,06,01,06,10,33.00
2012,06,01,06,11,34.10
2012,06,01,06,12,35.00
2012,06,01,06,13,35.00
2012,06,01,06,14,35.20
2012,06,01,06,15,37.00
2012,06,01,06,16,37.80
2012,06,01,06,17,39.60
2012,06,01,06,18,41.40
2012,06,01,06,19,43.70
2012,06,01,06,20,46.10
2012,06,01,06,21,47.00
2012,06,01,06,22,47.90
2012,06,01,06,23,49.00
2012,06,01,06,24,49.00
2012,06,01,06,25,49.00
2012,06,01,06,26,49.00
2012,06,01,06,27,49.60
2012,06,01,06,28,51.00
2012,06,01,06,29,52.20
2012,06,01,06,30,53.70
2012,06,01,06,31,54.00
2012,06,01,06,32,54.00
2012,06,01,06,33,54.00
2012,06,01,06,34,53.50
2012,06,01,06,35,53.00
2012,06,01,06,36,53.00
2012,06,01,06,37,53.00
2012,06,01,06,38,52.70
2012,06,01,06,39,51.00
2012,06,01,06,40,51.00
2012,06,01,06,41,49.80
2012,06,01,06,42,47.50
2012,06,01,06,43,45.90
2012,06,01,06,44,43.20
2012,06,01,06,45,39.70
2012,06,01,06,46,38.00
2012,06,01,06,47,37.00
2012,06,01,06,48,37.00
2012,06,01,06,49,38.90
2012,06,01,06,50,39.30
2012,06,01,06,51,40.80
2012,06,01,06,52,42.00
2012,06,01,06,53,43.40
2012,06,01,06,54,42.30
2012,06,01,06,55,42.00
2012,06,01,06,56,42.50
2012,06,01,06,57,44.00
2012,06,01,06,58,45.10
2012,06,01,06,59,46.70
2012,06,01,07,00,47.00
2012,06,01,07,01,49.00
2012,06,01,07,02,49.00
2012,06,01,07,03,49.90
2012,06,01,07,04,52.20
2012,06,01,07,05,55.30
2012,06,01,07,06,59.60
2012,06,01,07,07,62.40
2012,06,01,07,08,66.20
2012,06,01,07,09,69.50
2012,06,01,07,10,72.30
2012,06,01,07,11,75.50
2012,06,01,07,12,78.80
2012,06,01,07,13,81.40
2012,06,01,07,14,83.30
2012,06,01,07,15,85.80
2012,06,01,07,16,88.00
2012,06,01,07,17,89.50
2012,06,01,07,18,90.00
2012,06,01,07,19,89.60
2012,06,01,07,20,87.40
2012,06,01,07,21,84.60
2012,06,01,07,22,80.50
2012,06,01,07,23,77.50
2012,06,01,07,24,74.10
2012,06,01,07,25,72.00
2012,06,01,07,26,73.50
2012,06,01,07,27,77.50
2012,06,01,07,28,80.30
2012,06,01,07,29,82.60
2012,06,01,07,30,88.00
2012,06,01,07,31,90.20
2012,06,01,07,32,91.00
2012,06,01,07,33,90.50
2012,06,01,07,34,90.00
2012,06,01,07,35,90.00
2012,06,01,07,36,91.20
2012,06,01,07,37,92.20
2012,06,01,07,38,88.30
2012,06,01,07,39,86.00
2012,06,01,07,40,86.00
2012,06,01,07,41,86.00
2012,06,01,07,42,90.40
2012,06,01,07,43,94.80
2012,06,01,07,44,101.60
2012,06,01,07,45,104.00
2012,06,01,07,46,106.20
2012,06,01,07,47,166.60
2012,06,01,07,48,137.80
2012,06,01,07,49,132.60
2012,06,01,07,50,134.00
2012,06,01,07,51,134.00
2012,06,01,07,52,170.20
2012,06,01,07,53,158.10
2012,06,01,07,54,150.40
2012,06,01,07,55,145.80
2012,06,01,07,56,137.70
2012,06,01,07,57,146.80
2012,06,01,07,58,211.00
2012,06,01,07,59,237.90
2012,06,01,08,00,369.80
2012,06,01,08,01,374.60
2012,06,01,08,02,359.00
2012,06,01,08,03,229.30
2012,06,01,08,04,148.30
2012,06,01,08,05,158.70
2012,06,01,08,06,190.00
2012,06,01,08,07,190.00
2012,06,01,08,08,314.10
2012,06,01,08,09,425.60
2012,06,01,08,10,426.60
2012,06,01,08,11,432.00
2012,06,01,08,12,433.60
2012,06,01,08,13,432.00
2012,06,01,08,14,431.50
2012,06,01,08,15,431.00
2012,06,01,08,16,413.80
2012,06,01,08,17,318.40
2012,06,01,08,18,245.20
2012,06,01,08,19,175.30
2012,06,01,08,20,150.10
2012,06,01,08,21,168.00
2012,06,01,08,22,176.00
2012,06,01,08,23,206.10
2012,06,01,08,24,398.80
2012,06,01,08,25,407.10
2012,06,01,08,26,419.80
2012,06,01,08,27,422.80
2012,06,01,08,28,399.50
2012,06,01,08,29,415.00
2012,06,01,08,30,325.50
2012,06,01,08,31,121.90
2012,06,01,08,32,136.40
2012,06,01,08,33,165.80
2012,06,01,08,34,157.40
2012,06,01,08,35,158.20
2012,06,01,08,36,182.80
2012,06,01,08,37,206.00
2012,06,01,08,38,241.00
2012,06,01,08,39,239.10
2012,06,01,08,40,240.40
2012,06,01,08,41,375.20
2012,06,01,08,42,390.00
2012,06,01,08,43,429.10
2012,06,01,08,44,460.00
2012,06,01,08,45,462.90
2012,06,01,08,46,454.40
2012,06,01,08,47,426.30
2012,06,01,08,48,433.50
2012,06,01,08,49,465.00
2012,06,01,08,50,492.40
2012,06,01,08,51,511.70
2012,06,01,08,52,509.70
2012,06,01,08,53,502.90
2012,06,01,08,54,496.60
2012,06,01,08,55,483.50
2012,06,01,08,56,475.70
2012,06,01,08,57,469.40
2012,06,01,08,58,470.20
2012,06,01,08,59,478.00
2012,06,01,09,00,476.00
2012,06,01,09,01,478.10
2012,06,01,09,02,493.80
2012,06,01,09,03,506.50
2012,06,01,09,04,515.50
2012,06,01,09,05,531.00
2012,06,01,09,06,531.90
2012,06,01,09,07,533.00
2012,06,01,09,08,533.70
2012,06,01,09,09,534.00
2012,06,01,09,10,536.00
2012,06,01,09,11,536.60
2012,06,01,09,12,538.90
2012,06,01,09,13,541.80
2012,06,01,09,14,539.10
2012,06,01,09,15,536.20
2012,06,01,09,16,534.00
2012,06,01,09,17,534.00
2012,06,01,09,18,534.90
2012,06,01,09,19,536.00
2012,06,01,09,20,537.50
2012,06,01,09,21,539.80
2012,06,01,09,22,540.20
2012,06,01,09,23,541.00
2012,06,01,09,24,542.00
2012,06,01,09,25,545.60
2012,06,01,09,26,547.80
2012,06,01,09,27,550.20
2012,06,01,09,28,554.20
2012,06,01,09,29,555.00
2012,06,01,09,30,557.00
2012,06,01,09,31,560.30
2012,06,01,09,32,561.00
2012,06,01,09,33,562.70
2012,06,01,09,34,561.00
2012,06,01,09,35,561.00
2012,06,01,09,36,562.60
2012,06,01,09,37,567.90
2012,06,01,09,38,572.50
2012,06,01,09,39,574.90
2012,06,01,09,40,575.50
2012,06,01,09,41,579.00
2012,06,01,09,42,583.10
2012,06,01,09,43,587.50
2012,06,01,09,44,591.50
2012,06,01,09,45,580.90
2012,06,01,09,46,576.90
2012,06,01,09,47,554.70
2012,06,01,09,48,601.00
2012,06,01,09,49,601.60
2012,06,01,09,50,616.80
2012,06,01,09,51,617.00
2012,06,01,09,52,607.00
2012,06,01,09,53,596.60
2012,06,01,09,54,612.40
2012,06,01,09,55,617.10
2012,06,01,09,56,624.70
2012,06,01,09,57,615.00
2012,06,01,09,58,615.00
2012,06,01,09,59,637.50
2012,06,01,10,00,670.70
2012,06,01,10,01,685.70
2012,06,01,10,02,695.60
2012,06,01,10,03,698.10
2012,06,01,10,04,694.60
2012,06,01,10,05,700.50
2012,06,01,10,06,695.50
2012,06,01,10,07,689.90
2012,06,01,10,08,687.00
2012,06,01,10,09,695.70
2012,06,01,10,10,704.10
2012,06,01,10,11,716.30
2012,06,01,10,12,727.90
2012,06,01,10,13,743.70
2012,06,01,10,14,758.80
2012,06,01,10,15,776.40
2012,06,01,10,16,756.30
2012,06,01,10,17,671.00
2012,06,01,10,18,638.00
2012,06,01,10,19,440.00
2012,06,01,10,20,396.00
2012,06,01,10,21,396.00
2012,06,01,10,22,396.00
2012,06,01,10,23,396.00
2012,06,01,10,24,411.30
2012,06,01,10,25,417.00
2012,06,01,10,26,402.90
2012,06,01,10,27,315.70
2012,06,01,10,28,323.70
2012,06,01,10,29,322.00
2012,06,01,10,30,342.50
2012,06,01,10,31,348.00
2012,06,01,10,32,394.80
2012,06,01,10,33,612.50
2012,06,01,10,34,603.00
2012,06,01,10,35,498.60
2012,06,01,10,36,438.30
2012,06,01,10,37,427.00
2012,06,01,10,38,480.40
2012,06,01,10,39,531.00
2012,06,01,10,40,485.00
2012,06,01,10,41,364.50
2012,06,01,10,42,260.30
2012,06,01,10,43,241.70
2012,06,01,10,44,230.90
2012,06,01,10,45,224.60
2012,06,01,10,46,216.50
2012,06,01,10,47,208.50
2012,06,01,10,48,202.90
2012,06,01,10,49,202.40
2012,06,01,10,50,209.80
2012,06,01,10,51,226.00
2012,06,01,10,52,249.50
2012,06,01,10,53,265.70
2012,06,01,10,54,318.30
2012,06,01,10,55,346.70
2012,06,01,10,56,501.00
2012,06,01,10,57,422.60
2012,06,01,10,58,324.30
2012,06,01,10,59,358.70
2012,06,01,11,00,374.00
2012,06,01,11,01,366.70
2012,06,01,11,02,287.10
2012,06,01,11,03,276.90
2012,06,01,11,04,272.30
2012,06,01,11,05,264.70
2012,06,01,11,06,252.90
2012,06,01,11,07,240.30
2012,06,01,11,08,230.50
2012,06,01,11,09,224.30
2012,06,01,11,10,218.20
2012,06,01,11,11,213.90
2012,06,01,11,12,209.50
2012,06,01,11,13,207.00
2012,06,01,11,14,207.60
2012,06,01,11,15,209.90
2012,06,01,11,16,212.10
2012,06,01,11,17,213.00
2012,06,01,11,18,213.20
2012,06,01,11,19,218.60
2012,06,01,11,20,222.20
2012,06,01,11,21,226.90
2012,06,01,11,22,230.80
2012,06,01,11,23,237.20
2012,06,01,11,24,247.50
2012,06,01,11,25,255.50
2012,06,01,11,26,260.10
2012,06,01,11,27,267.70
2012,06,01,11,28,275.60
2012,06,01,11,29,290.50
2012,06,01,11,30,320.50
2012,06,01,11,31,323.00
2012,06,01,11,32,330.80
2012,06,01,11,33,356.60
2012,06,01,11,34,396.30
2012,06,01,11,35,437.00
2012,06,01,11,36,429.60
2012,06,01,11,37,465.30
2012,06,01,11,38,577.00
2012,06,01,11,39,546.70
2012,06,01,11,40,551.70
2012,06,01,11,41,584.50
2012,06,01,11,42,541.30
2012,06,01,11,43,483.90
2012,06,01,11,44,418.40
2012,06,01,11,45,402.00
2012,06,01,11,46,400.40
2012,06,01,11,47,409.30
2012,06,01,11,48,441.00
2012,06,01,11,49,441.00
2012,06,01,11,50,441.00
2012,06,01,11,51,533.80
2012,06,01,11,52,598.00
2012,06,01,11,53,598.00
2012,06,01,11,54,598.00
2012,06,01,11,55,709.70
2012,06,01,11,56,975.90
2012,06,01,11,57,1030.20
2012,06,01,11,58,1017.80
2012,06,01,11,59,963.20
2012,06,01,12,00,965.90
2012,06,01,12,01,894.00
2012,06,01,12,02,919.90
2012,06,01,12,03,963.80
2012,06,01,12,04,1026.60
2012,06,01,12,05,1035.70
2012,06,01,12,06,1035.00
2012,06,01,12,07,1026.00
2012,06,01,12,08,1017.60
2012,06,01,12,09,1004.50
2012,06,01,12,10,991.00
2012,06,01,12,11,960.00
2012,06,01,12,12,605.50
2012,06,01,12,13,557.00
2012,06,01,12,14,557.00
2012,06,01,12,15,919.70
2012,06,01,12,16,1082.70
2012,06,01,12,17,1006.50
2012,06,01,12,18,366.10
2012,06,01,12,19,381.00
2012,06,01,12,20,381.00
2012,06,01,12,21,381.00
2012,06,01,12,22,381.00
2012,06,01,12,23,535.40
2012,06,01,12,24,582.90
2012,06,01,12,25,518.30
2012,06,01,12,26,508.00
2012,06,01,12,27,403.70
2012,06,01,12,28,356.70
2012,06,01,12,29,345.60
2012,06,01,12,30,340.90
2012,06,01,12,31,327.80
2012,06,01,12,32,319.40
2012,06,01,12,33,339.10
2012,06,01,12,34,326.00
2012,06,01,12,35,311.00
2012,06,01,12,36,312.50
2012,06,01,12,37,320.10
2012,06,01,12,38,333.30
2012,06,01,12,39,350.80
2012,06,01,12,40,372.90
2012,06,01,12,41,415.70
2012,06,01,12,42,475.40
2012,06,01,12,43,541.40
2012,06,01,12,44,580.00
2012,06,01,12,45,580.00
2012,06,01,12,46,622.00
2012,06,01,12,47,595.30
2012,06,01,12,48,489.70
2012,06,01,12,49,499.00
2012,06,01,12,50,499.00
2012,06,01,12,51,499.00
2012,06,01,12,52,536.90
2012,06,01,12,53,945.80
2012,06,01,12,54,929.70
2012,06,01,12,55,900.60
2012,06,01,12,56,851.00
2012,06,01,12,57,851.00
2012,06,01,12,58,420.80
2012,06,01,12,59,343.50
2012,06,01,13,00,333.30
2012,06,01,13,01,329.60
2012,06,01,13,02,335.60
2012,06,01,13,03,350.40
2012,06,01,13,04,376.60
2012,06,01,13,05,395.60
2012,06,01,13,06,408.00
2012,06,01,13,07,407.40
2012,06,01,13,08,412.90
2012,06,01,13,09,402.80
2012,06,01,13,10,400.70
2012,06,01,13,11,407.20
2012,06,01,13,12,404.80
2012,06,01,13,13,368.10
2012,06,01,13,14,355.00
2012,06,01,13,15,345.90
2012,06,01,13,16,337.30
2012,06,01,13,17,333.50
2012,06,01,13,18,332.00
2012,06,01,13,19,332.00
2012,06,01,13,20,333.50
2012,06,01,13,21,335.70
2012,06,01,13,22,336.90
2012,06,01,13,23,345.90
2012,06,01,13,24,357.00
2012,06,01,13,25,358.80
2012,06,01,13,26,368.20
2012,06,01,13,27,371.00
2012,06,01,13,28,377.70
2012,06,01,13,29,407.40
2012,06,01,13,30,423.50
2012,06,01,13,31,454.50
2012,06,01,13,32,468.00
2012,06,01,13,33,468.00
2012,06,01,13,34,468.00
2012,06,01,13,35,481.90
2012,06,01,13,36,503.50
2012,06,01,13,37,499.00
2012,06,01,13,38,499.00
2012,06,01,13,39,508.00
2012,06,01,13,40,598.00
2012,06,01,13,41,528.00
2012,06,01,13,42,424.40
2012,06,01,13,43,410.40
2012,06,01,13,44,392.80
2012,06,01,13,45,439.80
2012,06,01,13,46,431.10
2012,06,01,13,47,455.30
2012,06,01,13,48,412.90
2012,06,01,13,49,405.30
2012,06,01,13,50,422.00
2012,06,01,13,51,456.60
2012,06,01,13,52,534.00
2012,06,01,13,53,470.20
2012,06,01,13,54,378.20
2012,06,01,13,55,378.80
2012,06,01,13,56,392.20
2012,06,01,13,57,420.00
2012,06,01,13,58,389.70
2012,06,01,13,59,374.00
2012,06,01,14,00,341.50
2012,06,01,14,01,327.90
2012,06,01,14,02,316.80
2012,06,01,14,03,308.10
2012,06,01,14,04,303.30
2012,06,01,14,05,301.50
2012,06,01,14,06,301.00
2012,06,01,14,07,304.70
2012,06,01,14,08,311.20
2012,06,01,14,09,320.00
2012,06,01,14,10,330.80
2012,06,01,14,11,357.10
2012,06,01,14,12,372.50
2012,06,01,14,13,383.10
2012,06,01,14,14,424.30
2012,06,01,14,15,477.20
2012,06,01,14,16,551.00
2012,06,01,14,17,616.90
2012,06,01,14,18,678.70
2012,06,01,14,19,700.00
2012,06,01,14,20,860.70
2012,06,01,14,21,964.00
2012,06,01,14,22,1236.00
2012,06,01,14,23,846.80
2012,06,01,14,24,485.30
2012,06,01,14,25,483.00
2012,06,01,14,26,567.30
2012,06,01,14,27,561.50
2012,06,01,14,28,508.10
2012,06,01,14,29,466.20
2012,06,01,14,30,421.00
2012,06,01,14,31,445.20
2012,06,01,14,32,455.00
2012,06,01,14,33,500.70
2012,06,01,14,34,602.10
2012,06,01,14,35,617.60
2012,06,01,14,36,645.00
2012,06,01,14,37,979.80
2012,06,01,14,38,1038.30
2012,06,01,14,39,1034.70
2012,06,01,14,40,1032.10
2012,06,01,14,41,1022.70
2012,06,01,14,42,1018.00
2012,06,01,14,43,390.70
2012,06,01,14,44,290.50
2012,06,01,14,45,304.00
2012,06,01,14,46,334.00
2012,06,01,14,47,318.30
2012,06,01,14,48,295.00
2012,06,01,14,49,284.10
2012,06,01,14,50,285.70
2012,06,01,14,51,287.70
2012,06,01,14,52,286.00
2012,06,01,14,53,285.00
2012,06,01,14,54,289.10
2012,06,01,14,55,308.00
2012,06,01,14,56,343.00
2012,06,01,14,57,438.60
2012,06,01,14,58,550.50
2012,06,01,14,59,483.90
2012,06,01,15,00,492.40
2012,06,01,15,01,430.90
2012,06,01,15,02,412.00
2012,06,01,15,03,420.20
2012,06,01,15,04,428.70
2012,06,01,15,05,461.00
2012,06,01,15,06,511.40
2012,06,01,15,07,515.00
2012,06,01,15,08,515.00
2012,06,01,15,09,515.00
2012,06,01,15,10,515.00
2012,06,01,15,11,448.20
2012,06,01,15,12,392.00
2012,06,01,15,13,441.00
2012,06,01,15,14,441.00
2012,06,01,15,15,441.00
2012,06,01,15,16,571.00
2012,06,01,15,17,671.00
2012,06,01,15,18,450.10
2012,06,01,15,19,417.00
2012,06,01,15,20,430.70
2012,06,01,15,21,462.00
2012,06,01,15,22,713.40
2012,06,01,15,23,946.20
2012,06,01,15,24,965.00
2012,06,01,15,25,867.40
2012,06,01,15,26,388.30
2012,06,01,15,27,359.00
2012,06,01,15,28,359.00
2012,06,01,15,29,359.00
2012,06,01,15,30,931.70
2012,06,01,15,31,1024.60
2012,06,01,15,32,1009.10
2012,06,01,15,33,1030.00
2012,06,01,15,34,1030.00
2012,06,01,15,35,1030.00
2012,06,01,15,36,1030.90
2012,06,01,15,37,1036.90
2012,06,01,15,38,1020.30
2012,06,01,15,39,1013.50
2012,06,01,15,40,1002.50
2012,06,01,15,41,1005.10
2012,06,01,15,42,996.00
2012,06,01,15,43,994.30
2012,06,01,15,44,966.10
2012,06,01,15,45,938.40
2012,06,01,15,46,919.00
2012,06,01,15,47,898.80
2012,06,01,15,48,887.80
2012,06,01,15,49,875.40
2012,06,01,15,50,866.70
2012,06,01,15,51,859.30
2012,06,01,15,52,858.00
2012,06,01,15,53,863.80
2012,06,01,15,54,862.00
2012,06,01,15,55,867.20
2012,06,01,15,56,861.20
2012,06,01,15,57,856.00
2012,06,01,15,58,870.00
2012,06,01,15,59,880.20
2012,06,01,16,00,862.60
2012,06,01,16,01,860.90
2012,06,01,16,02,863.00
2012,06,01,16,03,863.00
2012,06,01,16,04,863.00
2012,06,01,16,05,863.00
2012,06,01,16,06,849.30
2012,06,01,16,07,752.80
2012,06,01,16,08,686.00
2012,06,01,16,09,794.70
2012,06,01,16,10,873.80
2012,06,01,16,11,875.00
2012,06,01,16,12,883.00
2012,06,01,16,13,917.90
2012,06,01,16,14,908.70
2012,06,01,16,15,900.40
2012,06,01,16,16,905.00
2012,06,01,16,17,913.60
2012,06,01,16,18,920.30
2012,06,01,16,19,935.00
2012,06,01,16,20,935.00
2012,06,01,16,21,539.50
2012,06,01,16,22,363.70
2012,06,01,16,23,396.80
2012,06,01,16,24,689.00
2012,06,01,16,25,537.20
2012,06,01,16,26,285.30
2012,06,01,16,27,293.80
2012,06,01,16,28,306.00
2012,06,01,16,29,306.00
2012,06,01,16,30,306.00
2012,06,01,16,31,326.10
2012,06,01,16,32,353.00
2012,06,01,16,33,700.90
2012,06,01,16,34,837.50
2012,06,01,16,35,829.50
2012,06,01,16,36,827.30
2012,06,01,16,37,831.00
2012,06,01,16,38,831.00
2012,06,01,16,39,789.90
2012,06,01,16,40,773.00
2012,06,01,16,41,775.80
2012,06,01,16,42,786.30
2012,06,01,16,43,779.60
2012,06,01,16,44,779.60
2012,06,01,16,45,784.60
2012,06,01,16,46,792.30
2012,06,01,16,47,799.60
2012,06,01,16,48,810.10
2012,06,01,16,49,821.70
2012,06,01,16,50,835.60
2012,06,01,16,51,853.30
2012,06,01,16,52,873.40
2012,06,01,16,53,838.60
2012,06,01,16,54,819.00
2012,06,01,16,55,781.40
2012,06,01,16,56,799.50
2012,06,01,16,57,734.60
2012,06,01,16,58,752.80
2012,06,01,16,59,676.00
2012,06,01,17,00,642.00
2012,06,01,17,01,642.00
2012,06,01,17,02,642.00
2012,06,01,17,03,296.80
2012,06,01,17,04,198.80
2012,06,01,17,05,193.40
2012,06,01,17,06,196.60
2012,06,01,17,07,203.20
2012,06,01,17,08,208.30